User: anonymous   Login
Location: Ammerl�gen
(47.2167°N, 9.6000°E)
Time: 11:53:47
(UTC+00:00)
Language:

RS-15 - Orbit

View from above orbital plane
View from above orbital plane
View from above satellite
View from above satellite

Ground track
Ground track

The orbit data is extracted from the following two-line orbital elements,

1 23439U 94085A   21339.96372178 -.00000037  00000-0  15882-3 0  9996
2 23439  64.8126  98.5649 0165266 305.5678  52.9937 11.27570450109671
Epoch (UTC): 05 December 2021 23:07:45
Eccentricity: 0.0165266
inclination: 64.8126°
perigee height: 1883 km
apogee height: 2161 km
right ascension of ascending node: 98.5649°
argument of perigee: 305.5678°
revolutions per day: 11.27570450
mean anomaly at epoch: 52.9937°
orbit number at epoch: 10967

The dashed part of the orbit path shows where the satellite is in the earth's shadow,  

DLR